TimeEDT,TemperatureF,Dew PointF,Humidity,Sea Level PressureIn,VisibilityMPH,Wind Direction,Wind SpeedMPH,Gust SpeedMPH,PrecipitationIn,Events,Conditions,WindDirDegrees,DateUTC
12:51 AM,57.9,57.0,97,30.09,3.0,Calm,Calm,-,N/A,,Clear,0,2013-05-31 04:51:00
1:51 AM,57.9,57.9,100,30.08,6.0,South,3.5,-,N/A,,Clear,190,2013-05-31 05:51:00
2:10 AM,57.2,57.2,100,30.10,0.8,Calm,Calm,-,N/A,,Clear,0,2013-05-31 06:10:00
2:27 AM,53.6,53.6,100,30.10,2.0,Calm,Calm,-,N/A,,Clear,0,2013-05-31 06:27:00
2:43 AM,55.4,55.4,100,30.10,4.0,Calm,Calm,-,N/A,,Clear,0,2013-05-31 06:43:00
2:51 AM,54.0,54.0,100,30.08,6.0,Calm,Calm,-,N/A,,Clear,0,2013-05-31 06:51:00
3:00 AM,53.6,51.8,94,30.10,1.8,Calm,Calm,-,N/A,,Clear,0,2013-05-31 07:00:00
3:07 AM,53.6,53.6,100,30.10,3.0,Calm,Calm,-,N/A,,Clear,0,2013-05-31 07:07:00
3:51 AM,55.9,55.0,97,30.07,5.0,SSW,3.5,-,N/A,,Clear,200,2013-05-31 07:51:00
4:42 AM,53.6,51.8,94,30.10,1.8,Calm,Calm,-,N/A,,Clear,0,2013-05-31 08:42:00
4:51 AM,53.1,52.0,96,30.08,0.5,Calm,Calm,-,N/A,Fog,Fog,0,2013-05-31 08:51:00
4:57 AM,51.8,51.8,100,30.10,2.0,Calm,Calm,-,N/A,,Clear,0,2013-05-31 08:57:00
5:04 AM,51.8,51.8,100,30.10,6.0,Calm,Calm,-,N/A,,Clear,0,2013-05-31 09:04:00
5:51 AM,53.1,52.0,96,30.09,4.0,Calm,Calm,-,N/A,,Clear,0,2013-05-31 09:51:00
6:51 AM,60.1,57.9,93,30.09,5.0,SSW,3.5,-,N/A,,Scattered Clouds,200,2013-05-31 10:51:00
7:51 AM,68.0,61.0,78,30.08,9.0,WSW,6.9,-,N/A,,Clear,240,2013-05-31 11:51:00
8:51 AM,72.0,61.0,68,30.08,10.0,WSW,6.9,-,N/A,,Overcast,240,2013-05-31 12:51:00
9:51 AM,75.9,62.1,62,30.06,10.0,SW,10.4,17.3,N/A,,Partly Cloudy,230,2013-05-31 13:51:00
10:51 AM,81.0,62.1,52,30.05,10.0,WSW,11.5,18.4,N/A,,Clear,240,2013-05-31 14:51:00
11:51 AM,82.0,61.0,49,30.04,10.0,WSW,10.4,-,N/A,,Partly Cloudy,240,2013-05-31 15:51:00
12:51 PM,84.0,60.1,44,30.02,10.0,SW,15.0,26.5,N/A,,Partly Cloudy,230,2013-05-31 16:51:00
1:51 PM,86.0,57.9,38,30.00,10.0,SW,12.7,23.0,N/A,,Clear,230,2013-05-31 17:51:00
2:51 PM,86.0,59.0,40,30.00,10.0,WSW,10.4,19.6,N/A,,Partly Cloudy,240,2013-05-31 18:51:00
3:51 PM,87.1,57.9,37,29.98,10.0,WSW,10.4,18.4,N/A,,Partly Cloudy,240,2013-05-31 19:51:00
4:51 PM,84.0,55.9,38,29.95,10.0,SW,12.7,-,N/A,,Partly Cloudy,230,2013-05-31 20:51:00
5:51 PM,84.9,53.1,33,29.94,10.0,WSW,15.0,19.6,N/A,,Clear,240,2013-05-31 21:51:00
6:51 PM,82.9,53.1,36,29.94,8.0,West,9.2,-,N/A,,Clear,260,2013-05-31 22:51:00
7:51 PM,79.0,57.0,47,29.94,10.0,WSW,5.8,-,N/A,,Clear,250,2013-05-31 23:51:00
8:51 PM,71.1,57.9,63,29.94,10.0,WSW,3.5,-,N/A,,Clear,250,2013-06-01 00:51:00
9:51 PM,64.9,57.9,78,29.96,10.0,Calm,Calm,-,N/A,,Clear,0,2013-06-01 01:51:00
10:51 PM,62.1,57.9,86,29.96,9.0,Calm,Calm,-,N/A,,Clear,0,2013-06-01 02:51:00
11:51 PM,60.1,57.0,90,29.96,8.0,SSW,3.5,-,N/A,,Clear,200,2013-06-01 03:51:00